This is the latest recevied weather packets stored in our database for station/object K4PAD. If no packets are shown the sender has not sent any weather packets the latest 1 day(s).
| Time | Temp. | Humidity | Pressure | Rain* | Wind** | Luminosity | Snow |
|---|---|---|---|---|---|---|---|
| 1836274645 | 24.44° C | 90% | 1018.5 hPa | 0 mm | 0 m/s | 0 W/m² | - |
| 1836274498 | 23.89° C | 91% | 1018.5 hPa | 0 mm | 0 m/s | 0 W/m² | - |
| 1836274343 | 24.44° C | 90% | 1018.5 hPa | 0 mm | 0 m/s | 0 W/m² | - |
| 1836274197 | 24.44° C | 90% | 1018.5 hPa | 0 mm | 0 m/s | 0 W/m² | - |
| 1836274042 | 24.44° C | 89% | 1018.5 hPa | 0 mm | 0 m/s | 0 W/m² | - |
| 1778041273 | 17.22° C | 83% | 1018.3 hPa | 0 mm | 0 m/s | 0 W/m² | - |
| 1778040972 | 17.22° C | 82% | 1018.2 hPa | 0 mm | 0 m/s | 0 W/m² | - |
| 1778040668 | 17.78° C | 82% | 1018.2 hPa | 0 mm | 0 m/s | 0 W/m² | - |
| 1778040366 | 17.78° C | 82% | 1018.4 hPa | 0 mm | 0 m/s | 0 W/m² | - |
| 1778040062 | 17.78° C | 82% | 1018.3 hPa | 0 mm | 0 m/s | 0 W/m² | - |
| 1778039759 | 17.78° C | 81% | 1018.4 hPa | 0 mm | 0 m/s | 0 W/m² | - |
| 1778039455 | 17.78° C | 81% | 1018.2 hPa | 0 mm | 0 m/s | 0 W/m² | - |
| 1778039153 | 17.78° C | 80% | 1018.4 hPa | 0 mm | 0 m/s | 0 W/m² | - |
| 1778038850 | 18.33° C | 80% | 1018.3 hPa | 0 mm | 0 m/s | 0 W/m² | - |
| 1778038548 | 18.33° C | 79% | 1018.1 hPa | 0 mm | 0 m/s | 0 W/m² | - |
| 1778038244 | 18.33° C | 79% | 1018.2 hPa | 0 mm | 0 m/s | 0 W/m² | - |
| 1778037942 | 18.33° C | 77% | 1018.2 hPa | 0 mm | 0 m/s | 0 W/m² | - |
| 1778037638 | 18.89° C | 76% | 1018.2 hPa | 0 mm | 0 m/s | 0 W/m² | - |
| 1778037336 | 18.89° C | 76% | 1018 hPa | 0 mm | 0 m/s | 0 W/m² | - |
| 1778037032 | 18.89° C | 75% | 1018.1 hPa | 0 mm | 0 m/s | 0 W/m² | - |
| 1778036731 | 18.89° C | 74% | 1018 hPa | 0 mm | 0 m/s | 0 W/m² | - |
| 1778036428 | 19.44° C | 74% | 1018 hPa | 0 mm | 0 m/s | 0 W/m² | - |
| 1778036125 | 19.44° C | 74% | 1017.9 hPa | 0 mm | 0 m/s | 0 W/m² | - |
| 1778035821 | 19.44° C | 74% | 1017.7 hPa | 0 mm | 0 m/s | 0 W/m² | - |
| 1778035518 | 19.44° C | 72% | 1018 hPa | 0 mm | 0 m/s | 0 W/m² | - |
* Rain latest hour (hover to see other rain measurements)
** Current wind speed in m/s (hover to see current wind gust speed)